This is the latest recevied weather packets stored in our database for station/object W8DRH-13. If no packets are shown the sender has not sent any weather packets the latest 10 day(s).
| Time | Temp. | Humidity | Pressure | Rain* | Wind** | Luminosity | Snow |
|---|---|---|---|---|---|---|---|
| 1777149071 | 16.67° C | 84% | 1009.4 hPa | 0 mm | - | 567 W/m² | - |
| 1777148766 | 16.11° C | 85% | 1009.6 hPa | 0 mm | - | 592 W/m² | - |
| 1777148463 | 16.11° C | 85% | 1009.4 hPa | 0 mm | - | 271 W/m² | - |
| 1777148159 | 16.67° C | 84% | 1009.4 hPa | 0 mm | - | 218 W/m² | - |
| 1777147855 | 17.22° C | 83% | 1009.4 hPa | 0 mm | - | 150 W/m² | - |
| 1777147551 | 17.22° C | 83% | 1009.2 hPa | 0 mm | - | 242 W/m² | - |
| 1777147246 | 17.78° C | 82% | 1009.4 hPa | 0 mm | - | 146 W/m² | - |
| 1777146943 | 17.78° C | 81% | 1009.4 hPa | 0 mm | - | 131 W/m² | - |
| 1777146639 | 17.78° C | 81% | 1009.2 hPa | 0 mm | - | 230 W/m² | - |
| 1777146334 | 18.33° C | 80% | 1009.4 hPa | 0 mm | - | 209 W/m² | - |
| 1777146031 | 18.89° C | 81% | 1009.4 hPa | 0 mm | - | 276 W/m² | - |
| 1777145727 | 17.78° C | 83% | 1009.1 hPa | 0 mm | - | 879 W/m² | - |
| 1777145423 | 17.22° C | 82% | 1009.4 hPa | 0 mm | - | 266 W/m² | - |
| 1777145118 | 17.78° C | 83% | 1009.5 hPa | 0 mm | - | 281 W/m² | - |
| 1777144814 | 17.78° C | 82% | 1009.1 hPa | 0 mm | - | 242 W/m² | - |
| 1777144512 | 17.78° C | 82% | 1009.3 hPa | 0 mm | - | 368 W/m² | - |
| 1777144209 | 17.78° C | 82% | 1009.2 hPa | 0 mm | - | 401 W/m² | - |
| 1777143905 | 17.78° C | 83% | 1009.1 hPa | 0 mm | - | 343 W/m² | - |
| 1777143602 | 17.78° C | 81% | 1009.2 hPa | 0 mm | - | 799 W/m² | - |
| 1777143297 | 17.78° C | 83% | 1009.1 hPa | 0 mm | - | 773 W/m² | - |
| 1777142994 | 17.22° C | 84% | 1009.4 hPa | 0 mm | - | 330 W/m² | - |
| 1777142689 | 16.67° C | 84% | 1009.4 hPa | 0 mm | - | 439 W/m² | - |
| 1777142387 | 16.67° C | 85% | 1009.2 hPa | 0 mm | - | 744 W/m² | - |
| 1777142082 | 16.67° C | 84% | 1009.5 hPa | 0 mm | - | 384 W/m² | - |
| 1777141778 | 16.67° C | 86% | 1009.3 hPa | 0 mm | - | 321 W/m² | - |
* Rain latest hour (hover to see other rain measurements)
** Current wind speed in m/s (hover to see current wind gust speed)